Weather History for Tulsa, OK

Change the Weather History Date:

Thursday, February 23, 2012

  Actual Average Record
Temperature  
Mean Temperature 58 °F 45 °F  
Max Temperature 70 °F 56 °F 81 °F (1982)
Min Temperature 45 °F 34 °F 10 °F (1910)
Degree Days  
Heating Degree Days 7 20  
Month to date heating degree days 490 540  
Since 1 July heating degree days 2400 2813  
Growing Degree Days 8 (Base 50)    
Moisture  
Dew Point 34 °F    
Average Humidity 41    
Maximum Humidity 50    
Minimum Humidity 32    
Precipitation  
Precipitation 0.00 in 0.08 in 1.47 in (2001)
Month to date precipitation 1.36 1.46  
Year to date precipitation 1.97 3.12  
Sea Level Pressure  
Sea Level Pressure 29.47 in    
Wind  
Wind Speed 17 mph (WNW)    
Max Wind Speed 32 mph    
Max Gust Speed 38 mph    
Visibility 10 miles    
Events      
T = Trace of Precipitation, MM = Missing Value Source: NWS Daily Summary

Daily Weather History Graph

Daily Weather History Graph

Search for Another Location

Airport:

Trip Planner

Search our weather history database for the weather conditions in past years. The results will help you decide how hot, cold, wet, or windy it might be!

Date:

Astronomy

Feb. 23, 2012 Rise Set
Actual Time 7:02 AM CST 6:12 PM CST
Civil Twilight 6:36 AM CST 6:38 PM CST
Nautical Twilight 6:06 AM CST 7:08 PM CST
Astronomical Twilight 5:36 AM CST 7:37 PM CST
Moon 7:34 AM CST 8:12 PM CST
Length of Visible Light 12h 02m
Length of Day
11h 10m
Waxing Crescent, 3% of the Moon is Illuminated
Feb 23
Waxing Crescent
Feb 29
First Quarter
Mar 8
Full
Mar 14
Last Quarter
Mar 22
New

Hourly Weather History & Observations

Time (CST) Temp. Windchill Dew Point Humidity Pressure Visibility Wind Dir Wind Speed Gust Speed Precip Events Conditions
12:53 AM 55.9 °F - 36.0 °F 47% 29.36 in 10.0 mi South 15.0 mph - N/A   Clear
1:53 AM 55.9 °F - 35.1 °F 45% 29.33 in 10.0 mi SSE 8.1 mph - N/A   Clear
2:53 AM 55.9 °F - 35.1 °F 45% 29.27 in 10.0 mi South 13.8 mph - N/A   Clear
3:53 AM 55.0 °F - 35.1 °F 47% 29.24 in 10.0 mi South 11.5 mph - N/A   Clear
4:53 AM 55.0 °F - 35.1 °F 47% 29.20 in 10.0 mi South 12.7 mph - N/A   Clear
5:53 AM 55.0 °F - 35.1 °F 47% 29.19 in 10.0 mi South 11.5 mph - N/A   Clear
6:53 AM 51.1 °F - 34.0 °F 52% 29.24 in 10.0 mi WSW 5.8 mph - N/A   Clear
7:53 AM 54.0 °F - 35.1 °F 49% 29.26 in 10.0 mi WSW 5.8 mph - N/A   Clear
8:53 AM 57.0 °F - 36.0 °F 45% 29.26 in 10.0 mi NW 9.2 mph - N/A   Clear
9:53 AM 60.1 °F - 37.0 °F 42% 29.31 in 10.0 mi WNW 8.1 mph - N/A   Clear
10:53 AM 66.0 °F - 37.9 °F 36% 29.34 in 10.0 mi WNW 10.4 mph - N/A   Clear
11:53 AM 66.9 °F - 37.9 °F 34% 29.38 in 10.0 mi West 19.6 mph 26.5 mph N/A   Clear
12:53 PM 69.1 °F - 39.9 °F 35% 29.41 in 10.0 mi WNW 13.8 mph 25.3 mph N/A   Clear
1:53 PM 69.1 °F - 41.0 °F 36% 29.42 in 10.0 mi NNW 21.9 mph 28.8 mph N/A   Clear
2:53 PM 68.0 °F - 37.9 °F 33% 29.45 in 10.0 mi NW 23.0 mph 33.4 mph N/A   Clear
3:53 PM 64.9 °F - 36.0 °F 34% 29.51 in 10.0 mi NW 27.6 mph 36.8 mph N/A   Clear
4:53 PM 62.1 °F - 36.0 °F 38% 29.55 in 10.0 mi NW 20.7 mph 28.8 mph N/A   Clear
5:53 PM 55.0 °F - 33.1 °F 43% 29.64 in 10.0 mi NW 25.3 mph 32.2 mph N/A   Scattered Clouds
6:53 PM 53.1 °F - 28.0 °F 38% 29.71 in 10.0 mi NNW 23.0 mph 33.4 mph N/A   Overcast
7:53 PM 51.1 °F - 28.9 °F 43% 29.76 in 10.0 mi NNW 23.0 mph 29.9 mph N/A   Overcast
8:53 PM 48.9 °F - 24.1 °F 38% 29.80 in 10.0 mi NNW 29.9 mph 38.0 mph N/A   Overcast
9:53 PM 48.0 °F - 24.1 °F 39% 29.85 in 10.0 mi NNW 21.9 mph 33.4 mph N/A   Mostly Cloudy
10:53 PM 46.9 °F - 25.0 °F 42% 29.88 in 10.0 mi NNW 27.6 mph 36.8 mph N/A   Mostly Cloudy
11:53 PM 45.0 °F 37.4 °F 24.1 °F 44% 29.93 in 10.0 mi NW 18.4 mph 24.2 mph N/A   Clear